Weather in Suyundukovo

Russia / Republic of Bashkortostan     54°56′54″N   53°30′17″E
temp.,
°C
wind,
m/s
gust,
m/s
humid.,
%
clouds,
%
prec.,
mm/h
press.,
hPa
HPBL,
m
3 march, wed
wed323:00−1wsw51095100 1.1 1000649
02:00−5wsw499552 0.0 999160
05:00−2wsw589453 0.1 1000505
08:00−4wsw489596 0.1 1000383
11:00−4wsw479598 0.2 1001281
14:00−2wsw479294 0.0 1000467
17:00−2wsw479497 0.3 1001585
20:00−6w41093100 0.2 1001283
4 march, thu
thu423:00−6wnw7129595 0.8 1002593
02:00−10wnw5129392 0.3 1002318
05:00−11w499470 0.3 1004163
08:00−13sw479529 0.0 1003131
11:00−8sw6119265 0.2 1002499
14:00−5sw71288100 0.1 1000668
17:00−4sw81387100 0.3 998921
20:00−2sw91795100 0.7 996981
5 march, fri
fri523:00−2w71482100 0.9 996679
02:00−4w51387100 0.0 998451
05:00−5wsw41091100 0.0 999305
08:00−5wsw2593100 0.0 1000166
11:00−4sw1295100 1.1 1001212
14:00−2ene1195100 1.1 1000197
17:00−2nne4697100 2.6 999350
20:00−5nnw61095100 3.3 1000520
6 march, sat
sat623:00−8nw51094100 3.6 1006408
02:00−16wnw479585 0.1 1011111
05:00−19w239877 0.1 101326
08:00−20w1298100 0.0 101420
11:00−15wsw1192100 0.0 1014122
14:00−12nnw1186100 0.0 1013262
17:00−10nnw1286100 0.0 1011326
20:00−17wnw119738 0.0 101120
7 march, sun
sun723:00−19w119635 0.0 101120
02:00−19wsw22970 0.0 101120
05:00−18wsw239714 0.0 101234
08:00−17wsw239799 0.1 101242
11:00−15wsw249497 0.1 1013213
14:00−11wsw358432 0.0 1014471
17:00−11ssw468721 0.0 1013517
20:00−14s4109162 0.0 1012228